PROGRESS-MS 23

Last updated on Wed Nov 29 2023 00:02:08 GMT+0000 (Coordinated Universal Time)

1 56740U 23071A 23331.44745773 .00021005 00000+0 37730-3 0 9998 2 56740 51.6403 239.9148 0000994 337.9095 22.1851 15.49829499427100
UTC large
Height (km)
Speed (km/s)
/
Latitude / Longitude
Inclination (degrees)
Orbital Period (minutes)
Azimuth
Elevation
Range (km)
Doppler Factor

Next 0 passes for location: London (51.5072 / 0.1276)

Sorry there are no passes over London.